Location: My-Spot Observatory
(42.5758°N, 83.4144°W)
Time: 20:28:34
(UTC-05:00)

Envisat - Visible Passes

Search period start: 11 December 2018 00:00
Search period end: 21 December 2018 00:00
Orbit: 764 x 766 km, 98.2° (Epoch: 11 December)

Date Brightness Start Highest point End Pass type
(mag) Time Alt. Az. Time Alt. Az. Time Alt. Az.
11 Dec 4.6 17:51:16 10° E 17:53:45 14° ENE 17:56:14 10° NNE visible
11 Dec 3.0 19:27:00 10° S 19:32:04 81° WSW 19:37:11 10° NNW visible
12 Dec 3.2 18:50:36 10° SE 18:55:25 46° ENE 19:00:17 10° N visible
12 Dec 5.2 20:30:50 10° SW 20:34:40 21° W 20:38:31 10° NW visible
13 Dec 5.9 07:00:08 10° NE 07:03:02 15° E 07:05:55 10° SE visible
13 Dec 4.0 18:15:05 10° ESE 18:18:58 23° ENE 18:22:52 10° NNE visible
13 Dec 3.9 19:52:48 10° S 19:57:40 46° W 20:02:34 10° NNW visible
14 Dec 4.8 17:41:23 10° ENE 17:42:43 11° ENE 17:44:03 10° NE visible
14 Dec 2.8 19:15:49 10° SSE 19:20:53 81° ENE 19:25:59 10° N visible
14 Dec 5.9 20:58:37 10° WSW 21:00:30 12° W 21:02:24 10° WNW visible
15 Dec 3.4 18:39:39 10° SE 18:44:18 37° ENE 18:48:56 10° N visible
15 Dec 4.9 20:19:07 10° SSW 20:23:22 27° W 20:27:39 10° NW visible
16 Dec 6.2 06:49:55 10° ENE 06:51:41 12° E 06:53:28 10° ESE visible
16 Dec 4.3 18:04:29 10° ESE 18:07:54 18° ENE 18:11:19 10° NNE visible
16 Dec 3.5 19:41:27 10° S 19:46:27 59° W 19:51:29 10° NNW visible
17 Dec 2.9 19:04:42 10° SSE 19:09:43 64° ENE 19:14:45 10° N visible
17 Dec 5.7 20:46:13 10° SW 20:49:10 15° W 20:52:09 10° NW visible
18 Dec 5.8 07:13:44 10° NE 07:17:33 21° E 07:21:20 10° SE visible
18 Dec 3.7 18:28:48 10° SE 18:33:11 30° ENE 18:37:34 10° N visible
18 Dec 4.5 20:07:32 10° SSW 20:12:06 33° W 20:16:42 10° NNW visible
19 Dec 4.5 17:54:02 10° E 17:56:50 15° ENE 17:59:39 10° NNE visible
19 Dec 3.1 19:30:10 10° S 19:35:14 74° WSW 19:40:20 10° NNW visible
20 Dec 3.1 18:53:40 10° SE 18:58:33 51° ENE 19:03:28 10° N visible
20 Dec 5.4 20:34:14 10° SW 20:37:51 20° W 20:41:30 10° NW visible
